Regional Weather Roundup
Issued by NWS

Home | Current Version | Previous Version | Graphics & Text | Print | Product List | Glossary On
Versions: 1 2 3 4 5 6 7 8 9 10 11 12 13 14 15 16 17 18 19 20 21 22 23 24 25 26 27 28 29 30 31 32 33 34 35 36 37 38 39 40 41 42 43 44 45 46 47 48 49 50
000
ASUS45 KCYS 260810
RWRWY

WYOMING REGIONAL WEATHER ROUNDUP
NATIONAL WEATHER SERVICE CHEYENNE WY
200 AM MDT MON JUN 26 2017

NOTE:  "FAIR" INDICATES FEW OR NO CLOUDS BELOW 12,000 FEET
WITH NO SIGNIFICANT WEATHER AND/OR OBSTRUCTIONS TO VISIBILITY.

WYZ001-260900-
YELLOWSTONE NATIONAL PARK

CITY           SKY/WX    TMP DP  RH WIND       PRES   REMARKS
LK YELLOWSTONE   N/A     39  34  82 CALM      30.44S
W YELLOWSTONE  NOT AVBL

$$
WYZ002>013-054>058-071-098>099-260900-
NORTHERN WYOMING

CITY           SKY/WX    TMP DP  RH WIND       PRES   REMARKS
JACKSON        FAIR      45  39  81 NE5       30.35R
CODY           FAIR      58  37  45 SW10      30.26F
GREYBULL       FAIR      60  33  36 CALM      30.20S
WORLAND        FAIR      56  39  53 S9        30.21F
SHERIDAN       FAIR      47  39  74 CALM      30.21F
BUFFALO        FAIR      55  34  45 SW5       30.28F
GILLETTE       FAIR      49  33  54 S5        30.25F
NEWCASTLE      FAIR      52  28  40 E10       30.28S

$$
WYZ014>020-022>026-101>103-260900-
CENTRAL WYOMING

CITY           SKY/WX    TMP DP  RH WIND       PRES   REMARKS
BIG PINEY      FAIR      46  39  76 N6        30.38S
PINEDALE       FAIR      48  37  66 N8        30.38S
DUBOIS         FAIR      48  36  61 NW7       30.41S
LANDER         FAIR      54  37  52 CALM      30.30R
RIVERTON       FAIR      59  37  44 E8        30.30S
CASPER         FAIR      49  35  58 N7        30.31S
DOUGLAS        FAIR      46  36  68 CALM      30.30S

$$
WYZ021-027>030-104>119-260900-
SOUTHERN WYOMING

CITY           SKY/WX    TMP DP  RH WIND       PRES   REMARKS
EVANSTON       FAIR      61  33  35 CALM      30.35S
KEMMERER         N/A     54  37  54 N12       30.38S
FORT BRIDGER   FAIR      65  31  27 CALM      30.37F
ROCK SPRINGS   FAIR      60  24  25 E8        30.34R
DIXON          FAIR      57  27  31 E8        30.35R
RAWLINS        FAIR      53  35  50 NE6       30.35S
SARATOGA       FAIR      50  30  46 SE8       30.36F
LARAMIE        FAIR      49  45  86 S7        30.38S
CHEYENNE       FAIR      54  52  93 SW10      30.34F FOG
TORRINGTON     FAIR      53  47  79 NE9       30.22S
PINE BLUFFS    FAIR      52  52 100 SW9       30.29F

$$



USA.gov is the U.S. government's official web portal to all federal, state and local government web resources and services.